Time,TemperatureF,DewpointF,PressureIn,WindDirection,WindDirectionDegrees,WindSpeedMPH,WindSpeedGustMPH,Humidity,HourlyPrecipIn,Conditions,Clouds,dailyrainin,SoftwareType,DateUTC
2013-10-10 00:03:00,50.2,43.6,30.15,ENE,67,0.0,0.0,78,0.00,,,0.00,WUHU21623XXSP,2013-10-10 05:03:00,
2013-10-10 00:08:00,50.2,43.6,30.15,ENE,67,0.0,0.0,78,0.00,,,0.00,WUHU21623XXSP,2013-10-10 05:08:00,
2013-10-10 00:13:00,49.8,43.5,30.15,ENE,67,0.0,0.0,79,0.00,,,0.00,WUHU21623XXSP,2013-10-10 05:13:00,
2013-10-10 00:18:00,49.8,43.5,30.14,ENE,67,0.0,0.0,79,0.00,,,0.00,WUHU21623XXSP,2013-10-10 05:18:00,
2013-10-10 00:23:00,49.6,43.4,30.14,ENE,67,0.0,0.0,79,0.00,,,0.00,WUHU21623XXSP,2013-10-10 05:23:00,
2013-10-10 00:28:00,49.6,43.4,30.14,ENE,67,0.0,0.0,80,0.00,,,0.00,WUHU21623XXSP,2013-10-10 05:28:00,
2013-10-10 00:33:00,49.6,43.7,30.14,ENE,67,0.0,0.0,80,0.00,,,0.00,WUHU21623XXSP,2013-10-10 05:33:00,
2013-10-10 00:38:00,49.5,43.5,30.15,ENE,67,0.0,0.0,80,0.00,,,0.00,WUHU21623XXSP,2013-10-10 05:38:00,
2013-10-10 00:43:00,49.5,43.8,30.14,ENE,67,0.0,0.0,81,0.00,,,0.00,WUHU21623XXSP,2013-10-10 05:43:00,
2013-10-10 00:48:00,49.3,43.6,30.14,ENE,67,0.0,0.0,81,0.00,,,0.00,WUHU21623XXSP,2013-10-10 05:48:00,
2013-10-10 00:53:00,49.3,43.6,30.14,ENE,67,0.0,0.0,81,0.00,,,0.00,WUHU21623XXSP,2013-10-10 05:53:00,
2013-10-10 00:58:00,49.3,43.6,30.14,ENE,67,0.0,0.0,81,0.00,,,0.00,WUHU21623XXSP,2013-10-10 05:58:00,
2013-10-10 01:03:00,49.1,43.5,30.14,ENE,67,0.0,0.0,81,0.00,,,0.00,WUHU21623XXSP,2013-10-10 06:03:00,
2013-10-10 01:08:00,49.1,43.5,30.14,ENE,67,0.0,0.0,81,0.00,,,0.00,WUHU21623XXSP,2013-10-10 06:08:00,
2013-10-10 01:13:00,48.9,43.3,30.14,ENE,67,0.0,0.0,81,0.00,,,0.00,WUHU21623XXSP,2013-10-10 06:13:00,
2013-10-10 01:18:00,48.9,43.3,30.14,ENE,67,0.0,0.0,81,0.00,,,0.00,WUHU21623XXSP,2013-10-10 06:18:00,
2013-10-10 01:23:00,48.7,43.1,30.14,ENE,67,0.0,0.0,81,0.00,,,0.00,WUHU21623XXSP,2013-10-10 06:23:00,
2013-10-10 01:28:00,48.6,43.4,30.14,ENE,67,0.0,0.0,82,0.00,,,0.00,WUHU21623XXSP,2013-10-10 06:28:00,
2013-10-10 01:33:00,48.6,43.3,30.14,ENE,67,0.0,0.0,82,0.00,,,0.00,WUHU21623XXSP,2013-10-10 06:33:00,
2013-10-10 01:38:00,48.4,43.1,30.14,ENE,67,0.0,0.0,82,0.00,,,0.00,WUHU21623XXSP,2013-10-10 06:38:00,
2013-10-10 01:43:00,48.4,43.4,30.14,ENE,67,0.0,0.0,83,0.00,,,0.00,WUHU21623XXSP,2013-10-10 06:43:00,
2013-10-10 01:48:00,48.4,43.4,30.15,ENE,67,0.0,0.0,83,0.00,,,0.00,WUHU21623XXSP,2013-10-10 06:48:00,
2013-10-10 01:53:00,48.4,43.4,30.14,ENE,67,0.0,0.0,83,0.00,,,0.00,WUHU21623XXSP,2013-10-10 06:53:00,
2013-10-10 01:58:00,48.2,43.2,30.14,ENE,67,0.0,0.0,83,0.00,,,0.00,WUHU21623XXSP,2013-10-10 06:58:00,
2013-10-10 02:03:00,48.0,43.1,30.15,ENE,67,0.0,0.0,84,0.00,,,0.00,WUHU21623XXSP,2013-10-10 07:03:00,
2013-10-10 02:08:00,48.0,43.4,30.14,ENE,67,0.0,0.0,84,0.00,,,0.00,WUHU21623XXSP,2013-10-10 07:08:00,
2013-10-10 02:13:00,48.0,43.4,30.14,ENE,67,0.0,0.0,84,0.00,,,0.00,WUHU21623XXSP,2013-10-10 07:13:00,
2013-10-10 02:18:00,48.0,43.4,30.14,ENE,67,0.0,0.0,84,0.00,,,0.00,WUHU21623XXSP,2013-10-10 07:18:00,
2013-10-10 02:23:00,47.8,43.2,30.14,ENE,67,0.0,0.0,84,0.00,,,0.00,WUHU21623XXSP,2013-10-10 07:23:00,
2013-10-10 02:28:00,47.7,43.0,30.14,ENE,67,0.0,0.0,84,0.00,,,0.00,WUHU21623XXSP,2013-10-10 07:28:00,
2013-10-10 02:33:00,47.5,43.2,30.14,ENE,67,0.0,0.0,85,0.00,,,0.00,WUHU21623XXSP,2013-10-10 07:33:00,
2013-10-10 02:38:00,47.5,43.2,30.15,ENE,67,0.0,0.0,85,0.00,,,0.00,WUHU21623XXSP,2013-10-10 07:38:00,
2013-10-10 02:43:00,47.3,43.0,30.15,ENE,67,0.0,0.0,85,0.00,,,0.00,WUHU21623XXSP,2013-10-10 07:43:00,
2013-10-10 02:48:00,47.3,43.0,30.15,ENE,67,0.0,0.0,85,0.00,,,0.00,WUHU21623XXSP,2013-10-10 07:48:00,
2013-10-10 02:53:00,47.3,43.0,30.15,ENE,67,0.0,0.0,85,0.00,,,0.00,WUHU21623XXSP,2013-10-10 07:53:00,
2013-10-10 02:58:00,47.1,42.9,30.15,ENE,67,0.0,0.0,85,0.00,,,0.00,WUHU21623XXSP,2013-10-10 07:58:00,
2013-10-10 03:03:00,47.1,42.9,30.14,ENE,67,0.0,0.0,85,0.00,,,0.00,WUHU21623XXSP,2013-10-10 08:03:00,
2013-10-10 03:08:00,46.9,42.9,30.14,ENE,67,0.0,0.0,86,0.00,,,0.00,WUHU21623XXSP,2013-10-10 08:08:00,
2013-10-10 03:13:00,46.9,43.2,30.14,ENE,67,0.0,0.0,86,0.00,,,0.00,WUHU21623XXSP,2013-10-10 08:13:00,
2013-10-10 03:19:00,46.9,43.0,30.14,ENE,67,0.0,0.0,86,0.00,,,0.00,WUHU21623XXSP,2013-10-10 08:19:00,
2013-10-10 03:23:00,46.8,43.0,30.14,ENE,67,0.0,0.0,86,0.00,,,0.00,WUHU21623XXSP,2013-10-10 08:23:00,
2013-10-10 03:28:00,46.8,42.8,30.14,ENE,67,0.0,0.0,86,0.00,,,0.00,WUHU21623XXSP,2013-10-10 08:28:00,
2013-10-10 03:34:00,46.8,42.8,30.14,ENE,67,0.0,0.0,86,0.00,,,0.00,WUHU21623XXSP,2013-10-10 08:34:00,
2013-10-10 03:39:00,46.8,42.8,30.14,ENE,67,0.0,0.0,86,0.00,,,0.00,WUHU21623XXSP,2013-10-10 08:39:00,
2013-10-10 03:43:00,46.6,42.8,30.14,ENE,67,0.0,0.0,86,0.00,,,0.00,WUHU21623XXSP,2013-10-10 08:43:00,
2013-10-10 03:48:00,46.6,42.6,30.14,ENE,67,0.0,0.0,86,0.00,,,0.00,WUHU21623XXSP,2013-10-10 08:48:00,
2013-10-10 03:53:00,46.6,42.6,30.15,ENE,67,0.0,0.0,86,0.00,,,0.00,WUHU21623XXSP,2013-10-10 08:53:00,
2013-10-10 03:59:00,46.4,42.5,30.14,ENE,67,0.0,0.0,86,0.00,,,0.00,WUHU21623XXSP,2013-10-10 08:59:00,
2013-10-10 04:04:00,46.2,42.3,30.15,ENE,67,0.0,0.0,86,0.00,,,0.00,WUHU21623XXSP,2013-10-10 09:04:00,
2013-10-10 04:09:00,46.2,42.3,30.15,ENE,67,0.0,0.0,86,0.00,,,0.00,WUHU21623XXSP,2013-10-10 09:09:00,
2013-10-10 04:14:00,46.2,42.3,30.15,ENE,67,0.0,0.0,86,0.00,,,0.00,WUHU21623XXSP,2013-10-10 09:14:00,
2013-10-10 04:19:00,46.0,42.4,30.15,ENE,67,0.0,0.0,87,0.00,,,0.00,WUHU21623XXSP,2013-10-10 09:19:00,
2013-10-10 04:24:00,46.0,42.4,30.15,ENE,67,0.0,0.0,87,0.00,,,0.00,WUHU21623XXSP,2013-10-10 09:24:00,
2013-10-10 04:29:00,46.0,42.4,30.15,ENE,67,0.0,0.0,87,0.00,,,0.00,WUHU21623XXSP,2013-10-10 09:29:00,
2013-10-10 04:34:00,46.0,42.4,30.15,ENE,67,0.0,0.0,87,0.00,,,0.00,WUHU21623XXSP,2013-10-10 09:34:00,
2013-10-10 04:39:00,45.9,42.4,30.16,ENE,67,0.0,0.0,87,0.00,,,0.00,WUHU21623XXSP,2013-10-10 09:39:00,
2013-10-10 04:44:00,45.9,42.2,30.15,ENE,67,0.0,0.0,87,0.00,,,0.00,WUHU21623XXSP,2013-10-10 09:44:00,
2013-10-10 04:49:00,45.7,42.1,30.15,ENE,67,0.0,0.0,87,0.00,,,0.00,WUHU21623XXSP,2013-10-10 09:49:00,
2013-10-10 04:54:00,45.7,42.4,30.15,ENE,67,0.0,0.0,88,0.00,,,0.00,WUHU21623XXSP,2013-10-10 09:54:00,
2013-10-10 04:59:00,45.7,42.4,30.15,ENE,67,0.0,0.0,88,0.00,,,0.00,WUHU21623XXSP,2013-10-10 09:59:00,
2013-10-10 05:04:00,45.7,42.4,30.15,ENE,67,0.0,0.0,88,0.00,,,0.00,WUHU21623XXSP,2013-10-10 10:04:00,
2013-10-10 05:09:00,45.5,42.4,30.15,ENE,67,0.0,0.0,88,0.00,,,0.00,WUHU21623XXSP,2013-10-10 10:09:00,
2013-10-10 05:14:00,45.5,42.2,30.15,ENE,67,0.0,0.0,88,0.00,,,0.00,WUHU21623XXSP,2013-10-10 10:14:00,
2013-10-10 05:19:00,45.3,42.0,30.15,ENE,67,0.0,0.0,88,0.00,,,0.00,WUHU21623XXSP,2013-10-10 10:19:00,
2013-10-10 05:24:00,45.3,42.0,30.15,ENE,67,0.0,0.0,88,0.00,,,0.00,WUHU21623XXSP,2013-10-10 10:24:00,
2013-10-10 05:29:00,45.3,42.0,30.15,ENE,67,0.0,0.0,88,0.00,,,0.00,WUHU21623XXSP,2013-10-10 10:29:00,
2013-10-10 05:34:00,45.3,42.0,30.15,ENE,67,0.0,0.0,88,0.00,,,0.00,WUHU21623XXSP,2013-10-10 10:34:00,
2013-10-10 05:39:00,45.5,42.2,30.16,ENE,67,0.0,0.0,88,0.00,,,0.00,WUHU21623XXSP,2013-10-10 10:39:00,
2013-10-10 05:44:00,45.3,42.0,30.15,ENE,67,0.0,0.0,88,0.00,,,0.00,WUHU21623XXSP,2013-10-10 10:44:00,
2013-10-10 05:49:00,45.3,42.0,30.16,ENE,67,0.0,0.0,88,0.00,,,0.00,WUHU21623XXSP,2013-10-10 10:49:00,
2013-10-10 05:54:00,45.3,42.0,30.16,ENE,67,0.0,0.0,88,0.00,,,0.00,WUHU21623XXSP,2013-10-10 10:54:00,
2013-10-10 05:59:00,45.3,42.0,30.16,ENE,67,0.0,0.0,88,0.00,,,0.00,WUHU21623XXSP,2013-10-10 10:59:00,
2013-10-10 06:04:00,45.3,42.0,30.16,ENE,67,0.0,0.0,88,0.00,,,0.00,WUHU21623XXSP,2013-10-10 11:04:00,
2013-10-10 06:09:00,45.1,42.0,30.16,ENE,67,0.0,0.0,88,0.00,,,0.00,WUHU21623XXSP,2013-10-10 11:09:00,
2013-10-10 06:14:00,45.1,41.8,30.16,ENE,67,0.0,0.0,88,0.00,,,0.00,WUHU21623XXSP,2013-10-10 11:14:00,
2013-10-10 06:19:00,45.0,41.6,30.16,ENE,67,0.0,0.0,88,0.00,,,0.00,WUHU21623XXSP,2013-10-10 11:19:00,
2013-10-10 06:24:00,44.8,41.8,30.16,ENE,67,0.0,0.0,89,0.00,,,0.00,WUHU21623XXSP,2013-10-10 11:24:00,
2013-10-10 06:29:00,44.6,41.8,30.16,ENE,67,0.0,0.0,89,0.00,,,0.00,WUHU21623XXSP,2013-10-10 11:29:00,
2013-10-10 06:34:00,44.6,41.6,30.16,ENE,67,0.0,0.0,89,0.00,,,0.00,WUHU21623XXSP,2013-10-10 11:34:00,
2013-10-10 06:39:00,44.6,41.6,30.16,ENE,67,0.0,0.0,89,0.00,,,0.00,WUHU21623XXSP,2013-10-10 11:39:00,
2013-10-10 06:44:00,44.4,41.6,30.16,ENE,67,0.0,0.0,89,0.00,,,0.00,WUHU21623XXSP,2013-10-10 11:44:00,
2013-10-10 06:49:00,44.4,41.4,30.16,ENE,67,0.0,0.0,89,0.00,,,0.00,WUHU21623XXSP,2013-10-10 11:49:00,
2013-10-10 06:54:00,44.4,41.4,30.16,ENE,67,0.0,0.0,89,0.00,,,0.00,WUHU21623XXSP,2013-10-10 11:54:00,
2013-10-10 06:59:00,44.4,41.4,30.16,ENE,67,0.0,0.0,89,0.00,,,0.00,WUHU21623XXSP,2013-10-10 11:59:00,
2013-10-10 07:05:00,44.4,41.4,30.16,ENE,67,0.0,0.0,89,0.00,,,0.00,WUHU21623XXSP,2013-10-10 12:05:00,
2013-10-10 07:10:00,44.4,41.4,30.16,ENE,67,0.0,0.0,89,0.00,,,0.00,WUHU21623XXSP,2013-10-10 12:10:00,
2013-10-10 07:15:00,44.4,41.4,30.16,ENE,67,0.0,0.0,89,0.00,,,0.00,WUHU21623XXSP,2013-10-10 12:15:00,
2013-10-10 07:20:00,44.4,41.4,30.16,ENE,67,0.0,0.0,89,0.00,,,0.00,WUHU21623XXSP,2013-10-10 12:20:00,
2013-10-10 07:25:00,44.4,41.4,30.17,ENE,67,0.0,0.0,89,0.00,,,0.00,WUHU21623XXSP,2013-10-10 12:25:00,
2013-10-10 07:30:00,45.0,41.8,30.17,ENE,67,0.0,0.0,89,0.00,,,0.00,WUHU21623XXSP,2013-10-10 12:30:00,
2013-10-10 07:35:00,45.0,42.0,30.17,ENE,67,0.0,0.0,89,0.00,,,0.00,WUHU21623XXSP,2013-10-10 12:35:00,
2013-10-10 07:40:00,45.7,42.7,30.17,ENE,67,0.0,0.0,89,0.00,,,0.00,WUHU21623XXSP,2013-10-10 12:40:00,
2013-10-10 07:45:00,46.0,43.0,30.17,ENE,67,0.0,0.0,89,0.00,,,0.00,WUHU21623XXSP,2013-10-10 12:45:00,
2013-10-10 07:50:00,46.6,43.2,30.17,ENE,67,0.0,0.0,89,0.00,,,0.00,WUHU21623XXSP,2013-10-10 12:50:00,
2013-10-10 07:55:00,47.1,44.1,30.17,ENE,67,0.0,0.0,89,0.00,,,0.00,WUHU21623XXSP,2013-10-10 12:55:00,
2013-10-10 08:00:00,47.5,44.5,30.17,ENE,67,0.0,0.0,89,0.00,,,0.00,WUHU21623XXSP,2013-10-10 13:00:00,
2013-10-10 08:05:00,48.0,45.0,30.17,ENE,67,0.0,0.0,89,0.00,,,0.00,WUHU21623XXSP,2013-10-10 13:05:00,
2013-10-10 08:10:00,48.7,45.7,30.17,ENE,67,0.0,0.0,89,0.00,,,0.00,WUHU21623XXSP,2013-10-10 13:10:00,
2013-10-10 08:15:00,49.1,46.0,30.17,ENE,67,0.0,0.0,89,0.00,,,0.00,WUHU21623XXSP,2013-10-10 13:15:00,
2013-10-10 08:20:00,49.3,46.1,30.17,ENE,67,0.0,0.0,89,0.00,,,0.00,WUHU21623XXSP,2013-10-10 13:20:00,
2013-10-10 08:25:00,50.2,47.0,30.17,ENE,67,0.0,0.0,89,0.00,,,0.00,WUHU21623XXSP,2013-10-10 13:25:00,
2013-10-10 08:30:00,50.7,47.4,30.17,ENE,67,0.0,0.0,89,0.00,,,0.00,WUHU21623XXSP,2013-10-10 13:30:00,
2013-10-10 08:35:00,51.4,47.9,30.17,ENE,67,0.0,0.0,89,0.00,,,0.00,WUHU21623XXSP,2013-10-10 13:35:00,
2013-10-10 08:40:00,52.3,49.2,30.17,ENE,67,0.0,0.0,89,0.00,,,0.00,WUHU21623XXSP,2013-10-10 13:40:00,
2013-10-10 08:45:00,52.7,48.8,30.17,ENE,67,0.0,0.0,88,0.00,,,0.00,WUHU21623XXSP,2013-10-10 13:45:00,
2013-10-10 08:50:00,53.2,49.4,30.17,ENE,67,0.0,0.0,88,0.00,,,0.00,WUHU21623XXSP,2013-10-10 13:50:00,
2013-10-10 08:55:00,53.8,50.0,30.17,ENE,67,0.0,0.0,87,0.00,,,0.00,WUHU21623XXSP,2013-10-10 13:55:00,
2013-10-10 09:00:00,54.3,50.5,30.17,ENE,67,0.0,0.0,87,0.00,,,0.00,WUHU21623XXSP,2013-10-10 14:00:00,
2013-10-10 09:05:00,54.7,50.8,30.17,ENE,67,0.0,0.0,87,0.00,,,0.00,WUHU21623XXSP,2013-10-10 14:05:00,
2013-10-10 09:10:00,55.6,51.4,30.17,ENE,67,0.0,0.0,87,0.00,,,0.00,WUHU21623XXSP,2013-10-10 14:10:00,
2013-10-10 09:15:00,56.1,52.3,30.17,ENE,67,0.0,0.0,87,0.00,,,0.00,WUHU21623XXSP,2013-10-10 14:15:00,
2013-10-10 09:20:00,56.1,52.3,30.17,ENE,67,0.0,0.0,86,0.00,,,0.00,WUHU21623XXSP,2013-10-10 14:20:00,
2013-10-10 09:25:00,57.4,52.8,30.17,ENE,67,0.0,0.0,86,0.00,,,0.00,WUHU21623XXSP,2013-10-10 14:25:00,
2013-10-10 09:30:00,57.9,53.4,30.17,ENE,67,0.0,0.0,85,0.00,,,0.00,WUHU21623XXSP,2013-10-10 14:30:00,
2013-10-10 09:35:00,58.6,53.8,30.17,ENE,67,0.0,0.0,85,0.00,,,0.00,WUHU21623XXSP,2013-10-10 14:35:00,
2013-10-10 09:40:00,59.4,53.7,30.17,ENE,67,0.0,0.0,83,0.00,,,0.00,WUHU21623XXSP,2013-10-10 14:40:00,
2013-10-10 09:45:00,59.9,54.8,30.17,ENE,67,0.0,0.0,83,0.00,,,0.00,WUHU21623XXSP,2013-10-10 14:45:00,
2013-10-10 09:50:00,60.4,55.0,30.18,ENE,67,0.0,0.0,82,0.00,,,0.00,WUHU21623XXSP,2013-10-10 14:50:00,
2013-10-10 09:56:00,61.2,55.5,30.18,ENE,67,0.0,0.0,82,0.00,,,0.00,WUHU21623XXSP,2013-10-10 14:56:00,
2013-10-10 10:01:00,61.7,55.8,30.17,ENE,67,0.0,0.0,81,0.00,,,0.00,WUHU21623XXSP,2013-10-10 15:01:00,
2013-10-10 10:06:00,62.8,56.5,30.17,ENE,67,0.0,0.0,80,0.00,,,0.00,WUHU21623XXSP,2013-10-10 15:06:00,
2013-10-10 10:11:00,63.3,56.5,30.18,ENE,67,0.0,0.0,79,0.00,,,0.00,WUHU21623XXSP,2013-10-10 15:11:00,
2013-10-10 10:16:00,63.7,56.7,30.17,ENE,67,0.0,0.0,77,0.00,,,0.00,WUHU21623XXSP,2013-10-10 15:16:00,
2013-10-10 10:21:00,64.8,57.0,30.17,ENE,67,0.0,0.0,76,0.00,,,0.00,WUHU21623XXSP,2013-10-10 15:21:00,
2013-10-10 10:26:00,65.3,57.1,30.18,ENE,67,0.0,0.0,75,0.00,,,0.00,WUHU21623XXSP,2013-10-10 15:26:00,
2013-10-10 10:31:00,65.8,56.9,30.17,ENE,67,0.0,0.0,73,0.00,,,0.00,WUHU21623XXSP,2013-10-10 15:31:00,
2013-10-10 10:36:00,66.4,57.1,30.17,ENE,67,0.0,0.0,73,0.00,,,0.00,WUHU21623XXSP,2013-10-10 15:36:00,
2013-10-10 10:41:00,66.7,57.4,30.17,ENE,67,0.0,0.0,72,0.00,,,0.00,WUHU21623XXSP,2013-10-10 15:41:00,
2013-10-10 10:46:00,67.1,57.6,30.17,ENE,67,0.0,0.0,72,0.00,,,0.00,WUHU21623XXSP,2013-10-10 15:46:00,
2013-10-10 10:51:00,67.6,57.6,30.17,ENE,67,0.0,0.0,70,0.00,,,0.00,WUHU21623XXSP,2013-10-10 15:51:00,
2013-10-10 10:56:00,67.6,56.7,30.17,ENE,67,0.0,0.0,69,0.00,,,0.00,WUHU21623XXSP,2013-10-10 15:56:00,
2013-10-10 11:01:00,67.8,56.7,30.17,ENE,67,0.0,0.0,68,0.00,,,0.00,WUHU21623XXSP,2013-10-10 16:01:00,
2013-10-10 11:06:00,68.4,56.8,30.17,ENE,67,0.0,0.0,67,0.00,,,0.00,WUHU21623XXSP,2013-10-10 16:06:00,
2013-10-10 11:11:00,68.5,56.7,30.17,ENE,67,0.0,0.0,66,0.00,,,0.00,WUHU21623XXSP,2013-10-10 16:11:00,
2013-10-10 11:16:00,68.7,56.9,30.17,ENE,67,0.0,0.0,66,0.00,,,0.00,WUHU21623XXSP,2013-10-10 16:16:00,
2013-10-10 11:21:00,69.4,57.1,30.17,ENE,67,0.0,0.0,65,0.00,,,0.00,WUHU21623XXSP,2013-10-10 16:21:00,
2013-10-10 11:26:00,69.6,57.3,30.17,ENE,67,0.0,0.0,64,0.00,,,0.00,WUHU21623XXSP,2013-10-10 16:26:00,
2013-10-10 11:31:00,70.0,57.2,30.17,ENE,67,0.0,0.0,64,0.00,,,0.00,WUHU21623XXSP,2013-10-10 16:31:00,
2013-10-10 11:36:00,70.5,57.3,30.17,ENE,67,0.0,0.0,63,0.00,,,0.00,WUHU21623XXSP,2013-10-10 16:36:00,
2013-10-10 11:41:00,70.5,57.3,30.16,ENE,67,0.0,0.0,63,0.00,,,0.00,WUHU21623XXSP,2013-10-10 16:41:00,
2013-10-10 11:46:00,70.9,57.2,30.16,ENE,67,0.0,0.0,62,0.00,,,0.00,WUHU21623XXSP,2013-10-10 16:46:00,
2013-10-10 11:51:00,71.2,57.1,30.16,ENE,67,0.0,0.0,61,0.00,,,0.00,WUHU21623XXSP,2013-10-10 16:51:00,
2013-10-10 11:56:00,71.4,56.4,30.16,East,90,0.0,0.0,59,0.00,,,0.00,WUHU21623XXSP,2013-10-10 16:56:00,
2013-10-10 12:01:00,71.8,56.7,30.16,East,90,0.0,0.0,59,0.00,,,0.00,WUHU21623XXSP,2013-10-10 17:01:00,
2013-10-10 12:06:00,71.8,56.2,30.16,East,90,0.0,0.0,58,0.00,,,0.00,WUHU21623XXSP,2013-10-10 17:06:00,
2013-10-10 12:11:00,72.1,56.5,30.15,East,90,0.0,0.0,58,0.00,,,0.00,WUHU21623XXSP,2013-10-10 17:11:00,
2013-10-10 12:16:00,72.0,55.7,30.15,East,90,0.0,0.0,58,0.00,,,0.00,WUHU21623XXSP,2013-10-10 17:16:00,
2013-10-10 12:21:00,72.0,56.8,30.15,WSW,247,0.0,0.0,59,0.00,,,0.00,WUHU21623XXSP,2013-10-10 17:21:00,
2013-10-10 12:26:00,72.1,56.0,30.15,WSW,247,0.0,0.0,57,0.00,,,0.00,WUHU21623XXSP,2013-10-10 17:26:00,
2013-10-10 12:31:00,71.8,55.7,30.14,WSW,247,0.0,0.0,57,0.00,,,0.00,WUHU21623XXSP,2013-10-10 17:31:00,
2013-10-10 12:36:00,72.0,56.3,30.14,South,180,0.0,0.0,58,0.00,,,0.00,WUHU21623XXSP,2013-10-10 17:36:00,
2013-10-10 12:41:00,72.5,56.3,30.14,SSE,157,0.0,0.0,57,0.00,,,0.00,WUHU21623XXSP,2013-10-10 17:41:00,
2013-10-10 12:46:00,73.0,56.3,30.14,SSE,157,0.0,0.0,56,0.00,,,0.00,WUHU21623XXSP,2013-10-10 17:46:00,
2013-10-10 12:51:00,73.0,56.3,30.14,SSE,157,0.0,0.0,56,0.00,,,0.00,WUHU21623XXSP,2013-10-10 17:51:00,
2013-10-10 12:56:00,73.2,56.5,30.13,SSE,157,0.0,0.0,56,0.00,,,0.00,WUHU21623XXSP,2013-10-10 17:56:00,
2013-10-10 13:01:00,73.4,56.6,30.13,SSE,157,0.0,0.0,56,0.00,,,0.00,WUHU21623XXSP,2013-10-10 18:01:00,
2013-10-10 13:06:00,73.2,56.0,30.13,SSE,157,0.0,0.0,55,0.00,,,0.00,WUHU21623XXSP,2013-10-10 18:06:00,
2013-10-10 13:12:00,73.4,56.5,30.12,SSE,157,0.0,0.0,56,0.00,,,0.00,WUHU21623XXSP,2013-10-10 18:12:00,
2013-10-10 13:17:00,73.2,56.0,30.12,South,180,0.0,0.0,55,0.00,,,0.00,WUHU21623XXSP,2013-10-10 18:17:00,
2013-10-10 13:22:00,73.6,56.3,30.12,SSE,157,0.0,0.0,55,0.00,,,0.00,WUHU21623XXSP,2013-10-10 18:22:00,
2013-10-10 13:27:00,73.9,56.7,30.12,SSE,157,0.0,0.0,55,0.00,,,0.00,WUHU21623XXSP,2013-10-10 18:27:00,
2013-10-10 13:32:00,74.1,56.3,30.12,SSW,202,2.9,2.9,54,0.00,,,0.00,WUHU21623XXSP,2013-10-10 18:32:00,
2013-10-10 13:37:00,74.5,56.5,30.12,South,180,0.0,2.9,54,0.00,,,0.00,WUHU21623XXSP,2013-10-10 18:37:00,
2013-10-10 13:42:00,74.5,56.2,30.12,South,180,0.0,0.0,53,0.00,,,0.00,WUHU21623XXSP,2013-10-10 18:42:00,
2013-10-10 13:47:00,74.8,57.1,30.11,SSE,157,0.0,0.0,54,0.00,,,0.00,WUHU21623XXSP,2013-10-10 18:47:00,
2013-10-10 13:52:00,75.0,56.7,30.11,SSE,157,0.0,0.0,53,0.00,,,0.00,WUHU21623XXSP,2013-10-10 18:52:00,
2013-10-10 13:57:00,75.6,57.2,30.11,SSW,202,1.8,1.8,53,0.00,,,0.00,WUHU21623XXSP,2013-10-10 18:57:00,
2013-10-10 14:02:00,75.7,57.4,30.10,SSE,157,0.0,6.3,53,0.00,,,0.00,WUHU21623XXSP,2013-10-10 19:02:00,
2013-10-10 14:07:00,75.9,57.6,30.10,SSE,157,0.0,6.3,51,0.00,,,0.00,WUHU21623XXSP,2013-10-10 19:07:00,
2013-10-10 14:12:00,75.4,56.2,30.10,South,180,0.0,0.0,52,0.00,,,0.00,WUHU21623XXSP,2013-10-10 19:12:00,
2013-10-10 14:17:00,75.2,56.6,30.10,SSE,157,0.0,0.0,52,0.00,,,0.00,WUHU21623XXSP,2013-10-10 19:17:00,
2013-10-10 14:22:00,74.8,56.0,30.10,South,180,0.0,0.0,52,0.00,,,0.00,WUHU21623XXSP,2013-10-10 19:22:00,
2013-10-10 14:27:00,74.3,55.5,30.10,SSW,202,0.0,0.0,52,0.00,,,0.00,WUHU21623XXSP,2013-10-10 19:27:00,
2013-10-10 14:32:00,74.5,56.2,30.09,WSW,247,0.0,0.0,53,0.00,,,0.00,WUHU21623XXSP,2013-10-10 19:32:00,
2013-10-10 14:37:00,75.0,56.7,30.09,WSW,247,0.0,0.0,53,0.00,,,0.00,WUHU21623XXSP,2013-10-10 19:37:00,
2013-10-10 14:42:00,75.4,56.7,30.09,WSW,247,0.0,0.0,52,0.00,,,0.00,WUHU21623XXSP,2013-10-10 19:42:00,
2013-10-10 14:47:00,75.9,57.1,30.09,WSW,247,5.8,5.8,52,0.00,,,0.00,WUHU21623XXSP,2013-10-10 19:47:00,
2013-10-10 14:52:00,76.5,57.4,30.09,WSW,247,0.0,5.8,52,0.00,,,0.00,WUHU21623XXSP,2013-10-10 19:52:00,
2013-10-10 14:57:00,76.6,57.2,30.09,WSW,247,2.7,2.7,51,0.00,,,0.00,WUHU21623XXSP,2013-10-10 19:57:00,
2013-10-10 15:02:00,76.6,56.7,30.08,WSW,247,0.0,2.7,50,0.00,,,0.00,WUHU21623XXSP,2013-10-10 20:02:00,
2013-10-10 15:07:00,76.3,56.9,30.08,WSW,247,0.0,0.0,51,0.00,,,0.00,WUHU21623XXSP,2013-10-10 20:07:00,
2013-10-10 15:12:00,76.5,57.0,30.08,WSW,247,0.0,0.0,51,0.00,,,0.00,WUHU21623XXSP,2013-10-10 20:12:00,
2013-10-10 15:17:00,76.6,57.2,30.08,WSW,247,0.0,6.5,51,0.00,,,0.00,WUHU21623XXSP,2013-10-10 20:17:00,
2013-10-10 15:22:00,76.5,55.9,30.08,WSW,247,0.0,6.5,49,0.00,,,0.00,WUHU21623XXSP,2013-10-10 20:22:00,
2013-10-10 15:27:00,75.9,56.0,30.08,WSW,247,0.0,0.0,50,0.00,,,0.00,WUHU21623XXSP,2013-10-10 20:27:00,
2013-10-10 15:32:00,75.9,55.1,30.08,WSW,247,0.0,0.0,49,0.00,,,0.00,WUHU21623XXSP,2013-10-10 20:32:00,
2013-10-10 15:37:00,75.6,55.1,30.08,WSW,247,0.0,0.0,50,0.00,,,0.00,WUHU21623XXSP,2013-10-10 20:37:00,
2013-10-10 15:42:00,75.9,56.0,30.07,WSW,247,0.0,0.0,49,0.00,,,0.00,WUHU21623XXSP,2013-10-10 20:42:00,
2013-10-10 15:47:00,75.7,55.3,30.07,WSW,247,0.0,0.0,49,0.00,,,0.00,WUHU21623XXSP,2013-10-10 20:47:00,
2013-10-10 15:52:00,75.7,55.3,30.07,SE,135,0.0,0.0,49,0.00,,,0.00,WUHU21623XXSP,2013-10-10 20:52:00,
2013-10-10 15:57:00,75.7,55.9,30.07,SSE,157,0.0,4.0,50,0.00,,,0.00,WUHU21623XXSP,2013-10-10 20:57:00,
2013-10-10 16:02:00,75.4,55.0,30.06,SSE,157,0.0,4.0,49,0.00,,,0.00,WUHU21623XXSP,2013-10-10 21:02:00,
2013-10-10 16:07:00,75.4,55.0,30.06,SSE,157,0.0,0.0,50,0.00,,,0.00,WUHU21623XXSP,2013-10-10 21:07:00,
2013-10-10 16:12:00,75.0,55.4,30.06,SSE,157,0.0,0.0,50,0.00,,,0.00,WUHU21623XXSP,2013-10-10 21:12:00,
2013-10-10 16:17:00,75.0,55.7,30.06,SSE,157,0.0,0.0,51,0.00,,,0.00,WUHU21623XXSP,2013-10-10 21:17:00,
2013-10-10 16:22:00,75.4,55.7,30.06,SSE,157,0.0,0.0,51,0.00,,,0.00,WUHU21623XXSP,2013-10-10 21:22:00,
2013-10-10 16:27:00,75.4,55.6,30.06,WSW,247,0.0,0.0,50,0.00,,,0.00,WUHU21623XXSP,2013-10-10 21:27:00,
2013-10-10 16:32:00,75.7,55.3,30.06,WSW,247,0.0,0.0,49,0.00,,,0.00,WUHU21623XXSP,2013-10-10 21:32:00,
2013-10-10 16:37:00,75.7,55.9,30.06,SSE,157,2.2,2.2,50,0.00,,,0.00,WUHU21623XXSP,2013-10-10 21:37:00,
2013-10-10 16:42:00,75.6,55.7,30.06,SSE,157,0.0,2.2,50,0.00,,,0.00,WUHU21623XXSP,2013-10-10 21:42:00,
2013-10-10 16:47:00,75.6,55.7,30.06,SSE,157,0.0,2.2,50,0.00,,,0.00,WUHU21623XXSP,2013-10-10 21:47:00,
2013-10-10 16:52:00,75.4,55.6,30.06,SSE,157,0.0,0.0,50,0.00,,,0.00,WUHU21623XXSP,2013-10-10 21:52:00,
2013-10-10 16:57:00,75.0,55.2,30.06,WSW,247,0.0,0.0,51,0.00,,,0.00,WUHU21623XXSP,2013-10-10 21:57:00,
2013-10-10 17:02:00,75.0,55.7,30.06,WSW,247,4.5,4.5,51,0.00,,,0.00,WUHU21623XXSP,2013-10-10 22:02:00,
2013-10-10 17:07:00,75.4,56.1,30.06,WSW,247,0.0,4.5,51,0.00,,,0.00,WUHU21623XXSP,2013-10-10 22:07:00,
2013-10-10 17:12:00,75.4,56.1,30.06,WSW,247,0.0,4.5,51,0.00,,,0.00,WUHU21623XXSP,2013-10-10 22:12:00,
2013-10-10 17:17:00,75.2,56.1,30.06,WSW,247,0.0,0.0,51,0.00,,,0.00,WUHU21623XXSP,2013-10-10 22:17:00,
2013-10-10 17:22:00,75.2,55.4,30.06,WSW,247,5.8,5.8,50,0.00,,,0.00,WUHU21623XXSP,2013-10-10 22:22:00,
2013-10-10 17:27:00,75.0,55.2,30.06,WSW,247,0.0,5.8,50,0.00,,,0.00,WUHU21623XXSP,2013-10-10 22:27:00,
2013-10-10 17:32:00,74.8,55.0,30.06,WSW,247,0.0,0.0,50,0.00,,,0.00,WUHU21623XXSP,2013-10-10 22:32:00,
2013-10-10 17:37:00,74.5,54.9,30.06,WSW,247,0.0,0.0,50,0.00,,,0.00,WUHU21623XXSP,2013-10-10 22:37:00,
2013-10-10 17:42:00,74.1,54.7,30.06,SSE,157,0.0,0.0,50,0.00,,,0.00,WUHU21623XXSP,2013-10-10 22:42:00,
2013-10-10 17:47:00,73.9,54.6,30.06,SSE,157,0.0,0.0,51,0.00,,,0.00,WUHU21623XXSP,2013-10-10 22:47:00,
2013-10-10 17:52:00,73.8,55.0,30.06,SSE,157,0.0,0.0,52,0.00,,,0.00,WUHU21623XXSP,2013-10-10 22:52:00,
2013-10-10 17:57:00,73.2,54.4,30.06,SSE,157,0.0,0.0,52,0.00,,,0.00,WUHU21623XXSP,2013-10-10 22:57:00,
2013-10-10 18:02:00,72.7,54.5,30.06,SSE,157,0.0,0.0,53,0.00,,,0.00,WUHU21623XXSP,2013-10-10 23:02:00,
2013-10-10 18:07:00,72.1,54.1,30.05,SSE,157,0.0,0.0,54,0.00,,,0.00,WUHU21623XXSP,2013-10-10 23:07:00,
2013-10-10 18:12:00,71.4,54.3,30.05,SSE,157,0.0,0.0,55,0.00,,,0.00,WUHU21623XXSP,2013-10-10 23:12:00,
2013-10-10 18:17:00,71.2,54.3,30.05,SSE,157,0.0,0.0,55,0.00,,,0.00,WUHU21623XXSP,2013-10-10 23:17:00,
2013-10-10 18:22:00,70.9,53.9,30.05,SSE,157,0.0,0.0,55,0.00,,,0.00,WUHU21623XXSP,2013-10-10 23:22:00,
2013-10-10 18:27:00,70.3,53.9,30.05,SSE,157,0.0,0.0,56,0.00,,,0.00,WUHU21623XXSP,2013-10-10 23:27:00,
2013-10-10 18:32:00,70.0,54.0,30.05,SSE,157,0.0,0.0,57,0.00,,,0.00,WUHU21623XXSP,2013-10-10 23:32:00,
2013-10-10 18:37:00,69.4,53.5,30.05,SSE,157,0.0,0.0,57,0.00,,,0.00,WUHU21623XXSP,2013-10-10 23:37:00,
2013-10-10 18:42:00,68.7,53.5,30.06,SSE,157,0.0,0.0,58,0.00,,,0.00,WUHU21623XXSP,2013-10-10 23:42:00,
2013-10-10 18:47:00,68.5,53.6,30.05,SSE,157,0.0,0.0,59,0.00,,,0.00,WUHU21623XXSP,2013-10-10 23:47:00,
2013-10-10 18:52:00,68.2,53.5,30.05,SSE,157,0.0,0.0,59,0.00,,,0.00,WUHU21623XXSP,2013-10-10 23:52:00,
2013-10-10 18:57:00,67.8,53.4,30.05,SSE,157,0.0,0.0,60,0.00,,,0.00,WUHU21623XXSP,2013-10-10 23:57:00,
2013-10-10 19:02:00,67.3,53.7,30.06,SSE,157,0.0,0.0,61,0.00,,,0.00,WUHU21623XXSP,2013-10-11 00:02:00,
2013-10-10 19:07:00,67.1,53.2,30.06,SSE,157,0.0,0.0,61,0.00,,,0.00,WUHU21623XXSP,2013-10-11 00:07:00,
2013-10-10 19:12:00,66.9,53.3,30.06,SSE,157,0.0,0.0,62,0.00,,,0.00,WUHU21623XXSP,2013-10-11 00:12:00,
2013-10-10 19:17:00,66.6,53.1,30.06,SSE,157,0.0,0.0,62,0.00,,,0.00,WUHU21623XXSP,2013-10-11 00:17:00,
2013-10-10 19:22:00,66.0,53.0,30.06,SSE,157,0.0,0.0,63,0.00,,,0.00,WUHU21623XXSP,2013-10-11 00:22:00,
2013-10-10 19:27:00,65.5,52.9,30.06,SSE,157,0.0,0.0,64,0.00,,,0.00,WUHU21623XXSP,2013-10-11 00:27:00,
2013-10-10 19:32:00,65.1,53.0,30.06,SSE,157,0.0,0.0,65,0.00,,,0.00,WUHU21623XXSP,2013-10-11 00:32:00,
2013-10-10 19:37:00,64.6,52.9,30.06,SSE,157,0.0,0.0,66,0.00,,,0.00,WUHU21623XXSP,2013-10-11 00:37:00,
2013-10-10 19:42:00,64.2,52.8,30.06,SSE,157,0.0,0.0,66,0.00,,,0.00,WUHU21623XXSP,2013-10-11 00:42:00,
2013-10-10 19:47:00,64.0,53.0,30.06,SSE,157,0.0,0.0,67,0.00,,,0.00,WUHU21623XXSP,2013-10-11 00:47:00,
2013-10-10 19:52:00,63.7,52.9,30.06,SSE,157,0.0,0.0,68,0.00,,,0.00,WUHU21623XXSP,2013-10-11 00:52:00,
2013-10-10 19:57:00,63.5,52.8,30.06,SSE,157,0.0,0.0,68,0.00,,,0.00,WUHU21623XXSP,2013-10-11 00:57:00,
2013-10-10 20:02:00,63.3,52.8,30.06,SSE,157,0.0,0.0,68,0.00,,,0.00,WUHU21623XXSP,2013-10-11 01:02:00,
2013-10-10 20:07:00,63.3,53.0,30.06,SSE,157,0.0,0.0,69,0.00,,,0.00,WUHU21623XXSP,2013-10-11 01:07:00,
2013-10-10 20:12:00,62.8,52.6,30.06,SSE,157,0.0,0.0,69,0.00,,,0.00,WUHU21623XXSP,2013-10-11 01:12:00,
2013-10-10 20:17:00,62.6,52.7,30.06,SSE,157,0.0,0.0,70,0.00,,,0.00,WUHU21623XXSP,2013-10-11 01:17:00,
2013-10-10 20:22:00,62.2,52.7,30.06,SSE,157,0.0,0.0,71,0.00,,,0.00,WUHU21623XXSP,2013-10-11 01:22:00,
2013-10-10 20:27:00,61.9,52.4,30.06,SSE,157,0.0,0.0,71,0.00,,,0.00,WUHU21623XXSP,2013-10-11 01:27:00,
2013-10-10 20:32:00,61.5,52.3,30.06,SSE,157,0.0,0.0,72,0.00,,,0.00,WUHU21623XXSP,2013-10-11 01:32:00,
2013-10-10 20:37:00,61.2,52.5,30.06,SSE,157,0.0,0.0,73,0.00,,,0.00,WUHU21623XXSP,2013-10-11 01:37:00,
2013-10-10 20:42:00,61.0,52.3,30.06,SSE,157,0.0,0.0,73,0.00,,,0.00,WUHU21623XXSP,2013-10-11 01:42:00,
2013-10-10 20:47:00,60.6,52.2,30.06,SSE,157,0.0,0.0,73,0.00,,,0.00,WUHU21623XXSP,2013-10-11 01:47:00,
2013-10-10 20:52:00,60.4,52.5,30.06,SSE,157,0.0,0.0,75,0.00,,,0.00,WUHU21623XXSP,2013-10-11 01:52:00,
2013-10-10 20:57:00,60.1,52.2,30.06,SSE,157,0.0,0.0,75,0.00,,,0.00,WUHU21623XXSP,2013-10-11 01:57:00,
2013-10-10 21:03:00,60.1,52.5,30.06,SSE,157,0.0,0.0,76,0.00,,,0.00,WUHU21623XXSP,2013-10-11 02:03:00,
2013-10-10 21:08:00,60.1,52.5,30.06,SSE,157,0.0,0.0,76,0.00,,,0.00,WUHU21623XXSP,2013-10-11 02:08:00,
2013-10-10 21:13:00,60.1,52.5,30.06,SSE,157,0.0,0.0,76,0.00,,,0.00,WUHU21623XXSP,2013-10-11 02:13:00,
2013-10-10 21:18:00,60.1,52.5,30.06,SSE,157,0.0,0.0,76,0.00,,,0.00,WUHU21623XXSP,2013-10-11 02:18:00,
2013-10-10 21:23:00,59.9,52.3,30.06,SSE,157,0.0,0.0,76,0.00,,,0.00,WUHU21623XXSP,2013-10-11 02:23:00,
2013-10-10 21:28:00,59.7,52.3,30.06,SSE,157,0.0,0.0,76,0.00,,,0.00,WUHU21623XXSP,2013-10-11 02:28:00,
2013-10-10 21:33:00,59.5,52.0,30.06,SSE,157,0.0,0.0,76,0.00,,,0.00,WUHU21623XXSP,2013-10-11 02:33:00,
2013-10-10 21:38:00,59.4,52.0,30.06,SSE,157,0.0,0.0,76,0.00,,,0.00,WUHU21623XXSP,2013-10-11 02:38:00,
2013-10-10 21:43:00,59.4,51.8,30.06,SSE,157,0.0,0.0,77,0.00,,,0.00,WUHU21623XXSP,2013-10-11 02:43:00,
2013-10-10 21:48:00,58.8,51.6,30.06,SSE,157,0.0,0.0,77,0.00,,,0.00,WUHU21623XXSP,2013-10-11 02:48:00,
2013-10-10 21:53:00,58.8,51.6,30.06,SSE,157,0.0,0.0,77,0.00,,,0.00,WUHU21623XXSP,2013-10-11 02:53:00,
2013-10-10 21:58:00,58.8,52.0,30.06,SSE,157,0.0,0.0,78,0.00,,,0.00,WUHU21623XXSP,2013-10-11 02:58:00,
2013-10-10 22:03:00,58.6,51.8,30.06,SSE,157,0.0,0.0,78,0.00,,,0.00,WUHU21623XXSP,2013-10-11 03:03:00,
2013-10-10 22:08:00,58.5,51.6,30.06,SSE,157,0.0,0.0,78,0.00,,,0.00,WUHU21623XXSP,2013-10-11 03:08:00,
2013-10-10 22:13:00,58.3,51.4,30.06,SSE,157,0.0,0.0,78,0.00,,,0.00,WUHU21623XXSP,2013-10-11 03:13:00,
2013-10-10 22:18:00,58.1,51.4,30.06,SSE,157,0.0,0.0,79,0.00,,,0.00,WUHU21623XXSP,2013-10-11 03:18:00,
2013-10-10 22:23:00,57.9,51.4,30.06,SSE,157,0.0,0.0,79,0.00,,,0.00,WUHU21623XXSP,2013-10-11 03:23:00,
2013-10-10 22:28:00,57.7,51.4,30.06,SSE,157,0.0,0.0,79,0.00,,,0.00,WUHU21623XXSP,2013-10-11 03:28:00,
2013-10-10 22:33:00,57.7,51.3,30.06,SSE,157,0.0,0.0,79,0.00,,,0.00,WUHU21623XXSP,2013-10-11 03:33:00,
2013-10-10 22:38:00,57.2,50.7,30.06,SSE,157,0.0,0.0,79,0.00,,,0.00,WUHU21623XXSP,2013-10-11 03:38:00,
2013-10-10 22:43:00,57.0,50.5,30.06,SSE,157,0.0,0.0,80,0.00,,,0.00,WUHU21623XXSP,2013-10-11 03:43:00,
2013-10-10 22:48:00,57.0,50.9,30.06,SSE,157,0.0,0.0,80,0.00,,,0.00,WUHU21623XXSP,2013-10-11 03:48:00,
2013-10-10 22:54:00,56.8,50.7,30.06,SSE,157,0.0,0.0,80,0.00,,,0.00,WUHU21623XXSP,2013-10-11 03:54:00,
2013-10-10 23:00:00,56.5,50.7,30.06,SSE,157,0.0,0.0,81,0.00,,,0.00,WUHU21623XXSP,2013-10-11 04:00:00,
2013-10-10 23:01:00,56.5,50.7,30.06,SSE,157,0.0,0.0,81,0.00,,,0.00,WUHU21623XXSP,2013-10-11 04:01:00,
2013-10-10 23:02:00,56.5,50.7,30.06,SSE,157,0.0,0.0,81,0.00,,,0.00,WUHU21623XXSP,2013-10-11 04:02:00,
2013-10-10 23:04:00,56.5,50.7,30.06,SSE,157,0.0,0.0,81,0.00,,,0.00,WUHU21623XXSP,2013-10-11 04:04:00,
2013-10-10 23:09:00,56.3,50.5,30.06,SSE,157,0.0,0.0,81,0.00,,,0.00,WUHU21623XXSP,2013-10-11 04:09:00,
2013-10-10 23:14:00,56.1,50.3,30.06,SSE,157,0.0,0.0,81,0.00,,,0.00,WUHU21623XXSP,2013-10-11 04:14:00,
2013-10-10 23:19:00,56.1,50.6,30.06,SSE,157,0.0,0.0,82,0.00,,,0.00,WUHU21623XXSP,2013-10-11 04:19:00,
2013-10-10 23:24:00,55.9,50.5,30.06,SSE,157,0.0,0.0,82,0.00,,,0.00,WUHU21623XXSP,2013-10-11 04:24:00,
2013-10-10 23:29:00,55.8,50.3,30.06,SSE,157,0.0,0.0,82,0.00,,,0.00,WUHU21623XXSP,2013-10-11 04:29:00,
2013-10-10 23:34:00,55.6,50.1,30.06,SSE,157,0.0,0.0,82,0.00,,,0.00,WUHU21623XXSP,2013-10-11 04:34:00,
2013-10-10 23:39:00,55.4,50.1,30.06,SSE,157,0.0,0.0,82,0.00,,,0.00,WUHU21623XXSP,2013-10-11 04:39:00,
2013-10-10 23:44:00,55.2,50.3,30.06,SSE,157,0.0,0.0,83,0.00,,,0.00,WUHU21623XXSP,2013-10-11 04:44:00,
2013-10-10 23:49:00,55.2,50.1,30.06,SSE,157,0.0,0.0,83,0.00,,,0.00,WUHU21623XXSP,2013-10-11 04:49:00,
2013-10-10 23:54:00,55.2,50.1,30.06,SSE,157,0.0,0.0,83,0.00,,,0.00,WUHU21623XXSP,2013-10-11 04:54:00,
2013-10-10 23:59:00,55.0,49.9,30.06,SSE,157,0.0,0.0,83,0.00,,,0.00,WUHU21623XXSP,2013-10-11 04:59:00,